Location: Eyeline Observatory
(43.2182°N, 78.8632°W)
Time: 05:47:23
(UTC-05:00)

Vanguard 1 - Visible Passes

Search period start: 17 January 2018 00:00
Search period end: 27 January 2018 00:00
Orbit: 649 x 3834 km, 34.3° (Epoch: 16 January)

Date Brightness Start Highest point End Pass type
(mag) Time Alt. Az. Time Alt. Az. Time Alt. Az.
17 Jan 13.3 01:33:21 24° E 01:33:21 24° E 01:39:32 10° E visible
17 Jan 12.1 03:46:04 60° S 03:46:21 60° S 04:06:53 10° ESE visible
17 Jan 12.9 05:58:46 20° W 06:10:33 45° SSW 06:31:32 10° SE visible
18 Jan 13.1 01:53:10 29° ESE 01:53:10 29° ESE 02:01:08 10° E visible
18 Jan 12.1 04:05:52 55° SSW 04:07:32 57° S 04:28:06 10° ESE visible
18 Jan 13.1 06:18:35 15° W 06:31:39 38° SSW 06:51:35 10° SSE visible
19 Jan 12.9 02:13:00 34° ESE 02:13:00 34° ESE 02:22:40 10° ESE visible
19 Jan 12.2 04:25:43 48° SW 04:28:43 52° SSW 04:49:07 10° SE visible
19 Jan 13.2 06:38:31 10° W 06:52:42 32° SSW 07:11:09 10° SSE visible
20 Jan 12.7 02:32:51 39° SE 02:32:51 39° SE 02:44:07 10° ESE visible
20 Jan 12.3 04:45:34 40° SW 04:49:54 47° SSW 05:09:51 10° SE visible
20 Jan 13.3 07:00:36 10° W 07:13:42 25° SW 07:30:04 10° S visible
21 Jan 12.6 02:52:44 43° SE 02:52:44 43° SE 03:05:28 10° ESE visible
21 Jan 12.5 05:05:28 33° WSW 05:11:04 41° SSW 05:30:16 10° SE visible
22 Jan 13.7 00:59:56 11° E 00:59:56 11° E 01:00:16 10° E visible
22 Jan 12.5 03:12:39 45° SSE 03:12:39 45° SSE 03:26:40 10° ESE visible
22 Jan 12.7 05:25:22 26° WSW 05:32:11 35° SSW 05:50:16 10° SSE visible
23 Jan 13.6 01:19:52 14° ESE 01:19:52 14° ESE 01:21:43 10° ESE visible
23 Jan 12.4 03:32:36 45° S 03:32:36 45° S 03:47:38 10° SE visible
23 Jan 12.9 05:45:19 19° WSW 05:53:17 28° SSW 06:09:43 10° SSE visible
24 Jan 13.4 01:39:50 17° ESE 01:39:50 17° ESE 01:43:04 10° ESE visible
24 Jan 12.4 03:52:33 41° S 03:52:33 41° S 04:08:19 10° SE visible
24 Jan 13.1 06:05:17 13° WSW 06:14:23 22° SW 06:28:25 10° S visible
25 Jan 13.3 01:59:49 20° ESE 01:59:49 20° ESE 02:04:20 10° ESE visible
25 Jan 12.5 04:12:32 36° SSW 04:12:32 36° SSW 04:28:39 10° SE visible
25 Jan 13.3 06:26:56 10° WSW 06:35:27 16° SW 06:45:51 10° S visible
26 Jan 13.2 02:19:49 23° SE 02:19:49 23° SE 02:25:25 10° ESE visible
26 Jan 12.7 04:32:33 29° SSW 04:33:26 30° SSW 04:48:31 10° SSE visible
26 Jan 13.5 06:54:18 10° SW 06:56:32 10° SW 06:58:53 10° SSW visible
